Content
SEND FEEDBACK

Daily
Averages
Monthly
Summary
United States of America

RAMOS, PUERTO RICO


Home > North America > United States > Puerto Rico
Elevation: 393 feet     Latitude: 18 18N     Longitude: 065 42W

WEATHER
 
SELECT A DAY
Number of Records: 129,511;   Date Range: 6/30/96 - 12/18/14
 
SHARE

PRINT THIS DATA

[ ← Previous Day ]
WEATHER ALMANAC - JANUARY 31, 2013
[ Next Day → ]
[ °C ]   °F
Weather ElementAverageHighLow
Temperature58.6 °F82 °F (11:53 am) (1:53 am)
Dewpoint53.7 °F73.4 °F (9:43 am) (7:00 pm)
Humidity80.5 %91 % (12:53 am)71 % (11:53 am)
Barometer29.12 in30.12 in (10:53 am) (7:00 pm)
Wind Speed8.1 mph15 mph (10:53 am)
Wind Gust19.6 mph (9:43 am)
Weather ElementAverage
Visibility9.6 mi
Wind DirectionE (85.3 °)

Weather ElementTotal
Precipitation0.12 in
Heating Degree Days24 (Base 65)
Averaged from 32 records on January 31, 2013
WEATHER CONDITIONS BREAKOUT
WIND DIRECTION BREAKOUT
WEATHER BY HOUR - JANUARY 31, 2013
[ °C ]   °F
Local TimeTemperatureDewpointHumidityBarometerVisibilityWind DirectionWind SpeedGust SpeedPrecipitationEventsConditions
12:53 AM75.9 °F73.0 °F91 %30.06 in10.0 miENE (70°)8.1 mph0.04 inPartly Cloudy
1:53 AM0.0 °F0.0 °F30.06 in10.0 miENE (70°)4.6 mphScattered Clouds
2:00 AM0.0 °F0.0 °FNorth
2:53 AM0.0 °F0.0 °F30.05 in9.0 miSE (140°)12.7 mph0.01 inRainLight Rain
3:03 AM0.0 °F0.0 °F30.04 in8.0 miESE (110°)4.6 mph0.01 inRainLight Rain
3:53 AM0.0 °F0.0 °F30.04 in10.0 miCalm0.01 inScattered Clouds
4:53 AM0.0 °F0.0 °F30.04 in10.0 miEast (100°)5.8 mph0.00 inPartly Cloudy
5:53 AM75.0 °F71.1 °F87 %30.04 in10.0 miEast (100°)5.8 mphMostly Cloudy
6:21 AM75.2 °F71.6 °F89 %30.04 in7.0 miEast (80°)9.2 mph0.01 inRainLight Rain
6:48 AM75.2 °F71.6 °F89 %30.05 in10.0 miEast (100°)6.9 mph0.01 inMostly Cloudy
6:53 AM75.0 °F72.0 °F90 %30.05 in10.0 miEast (80°)6.9 mph0.01 inMostly Cloudy
7:53 AM0.0 °F0.0 °F30.08 in5.0 miESE (110°)6.9 mph18.4 mph0.02 inRainLight Rain
8:43 AM0.0 °F0.0 °F30.08 in10.0 miESE (110°)10.4 mph16.1 mph0.00 inMostly Cloudy
8:53 AM78.1 °F73.0 °F84 %30.09 in10.0 miESE (110°)8.1 mph0.00 inMostly Cloudy
9:43 AM78.8 °F73.4 °F83 %30.10 in10.0 miEast (90°)9.2 mph19.6 mphMostly Cloudy
9:53 AM80.1 °F71.1 °F74 %30.11 in10.0 miEast (90°)12.7 mph18.4 mphMostly Cloudy
10:53 AM80.1 °F71.1 °F74 %30.12 in10.0 miESE (120°)15.0 mph19.6 mphPartly Cloudy
11:53 AM82.0 °F72.0 °F71 %30.10 in10.0 miEast (90°)11.5 mphPartly Cloudy
12:53 PM82.0 °F72.0 °F71 %30.08 in10.0 miEast (90°)15.0 mphScattered Clouds
1:53 PM82.0 °F72.0 °F71 %30.06 in10.0 miENE (70°)10.4 mphMostly Cloudy
2:53 PM82.0 °F72.0 °F71 %30.04 in10.0 miENE (60°)8.1 mphPartly Cloudy
3:53 PM81.0 °F73.0 °F77 %30.03 in10.0 miENE (60°)8.1 mphClear
4:53 PM80.1 °F72.0 °F76 %30.03 in10.0 miENE (70°)8.1 mphPartly Cloudy
5:53 PM78.1 °F71.1 °F79 %30.04 in10.0 miEast (100°)9.2 mphPartly Cloudy
6:53 PM77.0 °F71.1 °F82 %30.04 in10.0 miESE (110°)6.9 mphClear
7:53 PM77.0 °F71.1 °F82 %30.06 in10.0 miEast (100°)5.8 mphClear
8:53 PM77.0 °F71.1 °F82 %30.06 in10.0 miEast (80°)6.9 mphPartly Cloudy
9:53 PM77.0 °F72.0 °F84 %30.08 in10.0 miENE (70°)8.1 mphScattered Clouds
10:04 PM77.0 °F71.6 °F83 %30.07 in10.0 miENE (70°)6.9 mphMostly Cloudy
10:37 PM77.0 °F69.8 °F78 %30.08 in10.0 miEast (80°)6.9 mphOvercast
10:53 PM75.9 °F70.0 °F82 %30.08 in10.0 miESE (110°)4.6 mphOvercast
11:53 PM77.0 °F71.1 °F82 %30.06 in10.0 miEast (90°)6.9 mphClear
Hourly data recorded from TJNR, located miles away from Ramos, Puerto Rico







STORIES FROM OUR PARTNERS